Tracking 22093 objects as of 18-Jan-2021
HD Live streaming from Space Station
objects crossing your sky now

INSAT 3A

Track INSAT 3A now!
INSAT 3A is classified as:


NORAD ID: 27714
Int'l Code: 2003-013A
Perigee: 35,869.6 km
Apogee: 35,982.6 km
Inclination: 4.1 °
Period: 1,442.9 minutes
Semi major axis: 42297 km
RCS: 22.0529 m2 (large)
Launch date: April 9, 2003
Source: India (IND)
Launch site: FRENCH GUIANA (FRGUI)

12 C-band, 6 extended C-band, 6 Ku-band for voice, video and data transmission to West Asia, East Asia, India; augment present INSAT capacity for communication and meteorological services.
aabbcc
Your satellite tracking list
Your tracking list is empty




NASA's NSSDC Master Catalog

Two Line Element Set (TLE):
1 27714U 03013A   21017.68956983  .00000135  00000-0  00000-0 0  9992
2 27714   4.0603  79.8430 0013360 266.8064  63.1802  0.99801447 64992
Source of the keplerian elements: AFSPC